Location: Arrien
(43.3167°N, 0.1500°W)
Time: 22:45:57
(UTC+00:00)

Cosmos 405 - Pass Details

Date: 15 October 2021
Orbit: 445 x 455 km, 81.3° (Epoch: 03 December)

Event Time Altitude Azimuth Distance (km) Brightness Sun altitude
Rises 18:08:42 0° 204° (SSW) 2,438 7.0 -10.1°
Reaches altitude 10° 18:10:50 10° 211° (SSW) 1,570 6.1 -10.5°
Maximum altitude 18:14:06 41° 284° (WNW) 661 4.4 -11.1°
Drops below altitude 10° 18:17:23 10° 356° (N) 1,579 5.7 -11.7°
Sets 18:19:32 0° 4° (N) 2,454 6.6 -12.1°
